Date,TemperatureHighF,TemperatureAvgF,TemperatureLowF,DewpointHighF,DewpointAvgF,DewpointLowF,HumidityHigh,HumidityAvg,HumidityLow,PressureMaxIn,PressureMinIn,WindSpeedMaxMPH,WindSpeedAvgMPH,GustSpeedMaxMPH,PrecipitationSumIn
2014-1-1,58,51,44,-100,-100,-100,0,0,100,30.31,30.07,0,-999,0,0.00
2014-1-2,57,49,40,-100,-100,-100,0,0,100,30.44,30.05,0,-999,0,0.00
2014-1-3,49,38,32,-100,-100,-100,0,0,100,30.50,30.30,0,-999,0,0.00
2014-1-4,62,48,35,-100,-100,-100,0,0,100,30.27,29.97,0,-999,0,0.00
2014-1-5,68,53,34,-100,-100,-100,0,0,100,30.31,29.90,0,-999,0,0.00
2014-1-6,34,29,25,-100,-100,-100,0,0,100,30.69,30.35,0,-999,0,0.00
2014-1-7,40,31,23,-100,-100,-100,0,0,100,30.71,30.53,0,-999,0,0.00
2014-1-8,47,39,30,-100,-100,-100,0,0,100,30.50,30.29,0,-999,0,0.00
2014-1-9,67,50,44,-100,-100,-100,0,0,100,30.31,30.17,0,-999,0,0.00
2014-1-10,67,59,52,-100,-100,-100,0,0,100,30.14,29.86,0,-999,0,0.00
2014-1-11,70,65,55,-100,-100,-100,0,0,100,30.15,29.86,0,-999,0,0.00
2014-1-12,69,57,41,-100,-100,-100,0,0,100,30.20,30.05,0,-999,0,0.00
2014-1-13,71,63,54,-100,-100,-100,0,0,100,30.12,29.86,0,-999,0,0.00
2014-1-14,66,54,42,-100,-100,-100,0,0,100,30.17,30.08,0,-999,0,0.00
2014-1-15,54,49,40,-100,-100,-100,0,0,100,30.38,30.17,0,-999,0,0.00
2014-1-16,63,51,39,-100,-100,-100,0,0,100,30.23,30.10,0,-999,0,0.00
2014-1-17,56,51,43,-100,-100,-100,0,0,100,30.33,30.15,0,-999,0,0.00
2014-1-18,59,49,35,-100,-100,-100,0,0,100,30.31,30.15,0,-999,0,0.00
2014-1-19,65,55,48,-100,-100,-100,0,0,100,30.30,30.14,0,-999,0,0.00
2014-1-20,71,58,40,-100,-100,-100,0,0,100,30.16,29.96,0,-999,0,0.00
2014-1-21,61,54,44,-100,-100,-100,0,0,100,30.26,30.02,0,-999,0,0.00
2014-1-22,59,47,34,-100,-100,-100,0,0,100,30.27,30.14,0,-999,0,0.00
2014-1-23,52,43,31,-100,-100,-100,0,0,100,30.62,30.16,0,-999,0,0.00
2014-1-24,29,26,24,-100,-100,-100,0,0,100,30.67,30.40,0,-999,0,0.00
2014-1-25,54,43,26,-100,-100,-100,0,0,100,30.38,30.08,0,-999,0,0.00
2014-1-26,64,56,45,-100,-100,-100,0,0,100,30.06,29.84,0,-999,0,0.00
2014-1-27,61,53,40,-100,-100,-100,0,0,100,30.18,29.84,0,-999,0,0.00
2014-1-28,37,31,26,-100,-100,-100,0,0,100,30.45,30.17,0,-999,0,0.00
2014-1-29,39,32,25,-100,-100,-100,0,0,100,30.53,30.37,0,-999,0,0.00
2014-1-30,53,40,24,-100,-100,-100,0,0,100,30.36,30.06,0,-999,0,0.00
2014-1-31,66,55,46,-100,-100,-100,0,0,100,30.09,29.99,0,-999,0,0.00